Tabella_dati_meteo_3mesi
GIORNO ORA SOLARE Palazzo Cavalli Pressione (hPa) Palazzo Cavalli Temperatura (°C) Palazzo Cavalli Umidità (%) San Giorgio Radiazione solare (W/m2) San Giorgio V. Vento med.10m (m/s) San Giorgio D. Vento med.10m (GN) P. Salute Temp H2O (°C)
29/08/21 00:10 1011.8 18.8 66 0 5.2 17 24
29/08/21 00:20 1011.9 18.8 67 0 4.6 15 24
29/08/21 00:30 1012 18.5 68 0 4.9 17 24
29/08/21 00:40 1011.9 18.5 69 0 5.2 19 24
29/08/21 00:50 1011.9 18.3 70 0 5.4 24 24
29/08/21 01:00 1011.8 18.1 71 0 6 25 24
29/08/21 01:10 1011.9 17.8 72 0 5.9 26 23.9
29/08/21 01:20 1011.8 17.9 73 0 5.3 34 23.9
29/08/21 01:30 1011.7 17.9 73 0 4.1 46 23.9
29/08/21 01:40 1011.7 18.1 73 4.2 45 23.9
29/08/21 01:50 1011.5 18.3 72 3.5 56 23.9
29/08/21 02:00 1011.6 18.7 71 4 52 23.9
29/08/21 02:10 1011.5 18.6 67 0 3.9 58 23.9
29/08/21 02:20 1011.5 18.8 66 3.1 52 23.9
29/08/21 02:30 1011.4 18.9 62 3.5 56 23.9
29/08/21 02:40 1011.4 18.8 63 3.1 38 23.9
29/08/21 02:50 1011.4 18.8 63 0 3.7 41 23.9
29/08/21 03:00 1011.4 18.8 66 3.8 55 23.8
29/08/21 03:10 1011.4 18.3 67 0 4.9 26 23.7
29/08/21 03:20 1011.4 18 68 0 4.2 24 23.7
29/08/21 03:30 1011.4 17.9 69 0 3.7 23 23.7
29/08/21 03:40 1011.4 17.9 70 0 3.6 29 23.7
29/08/21 03:50 1011.4 18 72 3.6 22 23.6
29/08/21 04:00 1011.4 17.7 72 0 3.1 6 23.6
29/08/21 04:10 1011.4 17.6 72 0 3.4 347 23.5
29/08/21 04:20 1011.5 17.4 71 0 3.7 352 23.5
29/08/21 04:30 1011.5 17.5 71 3.3 348 23.5
29/08/21 04:40 1011.5 17.5 71 3.2 6 23.5
29/08/21 04:50 1011.4 17.5 71 3 10 23.4
29/08/21 05:00 1011.3 17.4 71 3.3 26 23.4
29/08/21 05:10 1011.4 17.4 71 3.2 20 23.3
29/08/21 05:20 1011.4 17.2 73 0 3.1 26 23.3
29/08/21 05:30 1011.4 16.8 73 3 3 46 23.3
29/08/21 05:40 1011.4 17 75 6 3.2 31 23.3
29/08/21 05:50 1011.5 17 74 12 3.4 20 23.3
29/08/21 06:00 1011.6 17.2 73 54 3.9 16 23.3
29/08/21 06:10 1011.6 17.2 72 82 3.8 14 23.3
29/08/21 06:20 1011.7 17.1 72 111 3.9 8 23.2
29/08/21 06:30 1011.8 17.3 72 142 4 12 23.2
29/08/21 06:40 1011.8 17.2 71 173 4.6 9 23.2
29/08/21 06:50 1011.8 17.3 72 204 4.3 7 23.2
29/08/21 07:00 1011.8 17.4 70 238 4 11 23.3
29/08/21 07:10 1011.8 18.2 70 269 4.3 7 23.1
29/08/21 07:20 1011.8 18.8 68 300 3.6 7 23.2
29/08/21 07:30 1011.7 19.1 64 336 4 17 23.2
29/08/21 07:40 1011.6 19.8 63 368 2.8 8 23.2
29/08/21 07:50 1011.7 20.2 62 408 3.3 32 23.3
29/08/21 08:00 1011.7 20.8 60 460 3.6 29 23.4
29/08/21 08:10 1011.8 21.1 56 510 3.6 33 23.5
29/08/21 08:20 1011.8 21.5 55 580 3.2 35 23.5
29/08/21 08:30 1011.9 21.5 54 467 3 30 23.6
29/08/21 08:40 1011.9 21.4 54 244 3.2 27 23.7
29/08/21 08:50 1011.9 20.4 52 183 2.6 26 23.7
29/08/21 09:00 1011.8 21.1 54 285 2.7 36 23.8
29/08/21 09:10 1011.9 22.5 53 651 2.6 37 23.8
29/08/21 09:20 1011.9 22.5 52 674 3.2 26 23.8
29/08/21 09:30 1011.9 23.3 51 687 2.7 40 23.8
29/08/21 09:40 1011.9 23.2 49 708 2.4 38 23.8
29/08/21 09:50 1011.9 23.4 49 726 2 40 23.8
29/08/21 10:00 1011.9 23.3 46 757 1.8 16 23.8
29/08/21 10:10 1011.8 23.4 46 786 2 26 23.8
29/08/21 10:20 1011.8 24.2 44 565 2.3 31 23.9
29/08/21 10:30 1011.8 23.5 42 659 2.3 13 23.9
29/08/21 10:40 1011.8 23.6 40 649 1.4 24 23.9
29/08/21 10:50 1011.7 24.8 40 628 0.6 28 23.9
29/08/21 11:00 1011.7 24.2 38 872 1.5 169 23.9
29/08/21 11:10 1011.6 22.6 41 830 2.3 163 23.9
29/08/21 11:20 1011.5 23.6 41 853 2 166 23.9
29/08/21 11:30 1011.5 23.4 40 769 2.6 178 23.9
29/08/21 11:40 1011.4 23.2 43 888 3.2 176 23.9
29/08/21 11:50 1011.4 22.9 43 703 3.2 176 23.9
29/08/21 12:00 1011.4 23.4 43 876 3 181 23.8
29/08/21 12:10 1011.5 23.8 44 862 3.6 180 23.9
29/08/21 12:20 1011.4 23.3 43 857 3.4 186 23.9
29/08/21 12:30 1011.3 23.3 45 853 3.9 172 24
29/08/21 12:40 1011.3 23.5 43 847 3.5 171 24
29/08/21 12:50 1011.2 23.6 43 838 3.8 177 23.9
29/08/21 13:00 1011.1 23.4 42 830 4.1 181 23.9
29/08/21 13:10 1011.1 23.2 43 820 4.1 176 23.9
29/08/21 13:20 1011 23.8 43 802 4.5 173 23.9
29/08/21 13:30 1010.9 23.4 43 790 4.5 178 23.9
29/08/21 13:40 1010.9 23.5 43 771 4.8 182 23.9
29/08/21 13:50 1010.8 23.1 43 752 4.8 175 23.9
29/08/21 14:00 1010.7 23.3 44 735 5 171 23.9
29/08/21 14:10 1010.5 23.9 44 716 5 181 24
29/08/21 14:20 1010.4 24 44 694 4.8 175 24
29/08/21 14:30 1010.3 24.1 43 672 4.7 175 24
29/08/21 14:40 1010.2 24.3 44 649 4.6 178 24
29/08/21 14:50 1010.3 23.3 44 625 5 178 24
29/08/21 15:00 1010.2 23.6 46 599 5.1 180 24
29/08/21 15:10 1010.1 24 46 574 5.6 176 24
29/08/21 15:20 1010 23.7 46 548 5.1 174 24
29/08/21 15:30 1010.1 23.6 46 524 5.6 172 24
29/08/21 15:40 1010.1 23.4 47 495 6 170 24
29/08/21 15:50 1010.1 23.3 47 469 6.3 171 24.1
29/08/21 16:00 1010.2 23.5 48 463 6.4 173 24.1
29/08/21 16:10 1010 23.4 49 430 7.2 166 24.1
29/08/21 16:20 1010 23.2 48 443 6.7 169 24.1
29/08/21 16:30 1009.9 23.1 47 398 6.3 171 24.1
29/08/21 16:40 1009.8 23.2 48 324 6.5 167 24.1
29/08/21 16:50 1009.8 23.1 50 314 7.1 162 24.1
29/08/21 17:00 1009.9 23.1 49 349 6.7 160 24.1
29/08/21 17:10 1009.9 23 50 316 6.6 159 24.2
29/08/21 17:20 1009.9 23 50 216 7 160 24.2
29/08/21 17:30 1009.8 22.9 52 224 6.9 158 24.1
29/08/21 17:40 1009.9 22.9 52 172 6.7 152 24.1
29/08/21 17:50 1009.9 22.9 54 76 7.6 148 24.1
29/08/21 18:00 1010.1 22.9 53 62 8 160 24.1
29/08/21 18:10 1010.2 22.8 53 30 7.6 150 24
29/08/21 18:20 1010.2 22.7 52 14 8.1 146 24
29/08/21 18:30 1010.3 22.6 51 4 7.3 144 24
29/08/21 18:40 1010.3 22.6 51 5 8 133 24
29/08/21 18:50 1010.4 22.2 51 3 7.1 139 24
29/08/21 19:00 1010.4 21.8 55 6 5.8 154 23.9
29/08/21 19:10 1010.6 21.7 54 5.6 164 23.9
29/08/21 19:20 1010.9 21.8 55 3.6 151 23.9
29/08/21 19:30 1010.9 21.4 61 3 2.4 58 23.9
29/08/21 19:40 1011 20.9 62 3.1 98 23.9
29/08/21 19:50 1011.3 20.9 61 4.2 50 23.9
29/08/21 20:00 1011.2 20.4 51 5 35 23.9
29/08/21 20:10 1011.4 20.1 57 4.8 94 23.8
29/08/21 20:20 1011.5 19.9 59 5.7 68 23.8
29/08/21 20:30 1011.4 20 59 3.5 47 23.8
29/08/21 20:40 1011.3 20.1 58 2 131 23.8
29/08/21 20:50 1011.2 20 63 2.6 112 23.7
29/08/21 21:00 1011.3 19.7 67 0 3.2 72 23.7
29/08/21 21:10 1011.4 19.8 68 1.6 98 23.7
29/08/21 21:20 1011.6 19.8 69 0 2.2 52 23.6
29/08/21 21:30 1011.6 19.9 75 0 3.4 32 23.6
29/08/21 21:40 1011.7 19.6 74 0 2.8 62 23.6
29/08/21 21:50 1011.8 19.6 74 3.4 42 23.5
29/08/21 22:00 1011.8 19.4 75 4.2 32 23.5
29/08/21 22:10 1011.9 19.5 76 1 6 16 23.5
29/08/21 22:20 1012.1 19.1 77 1 4.9 5 23.5
29/08/21 22:30 1012.2 18.7 77 1 5.6 16 23.5
29/08/21 22:40 1012.1 18.7 78 1 4.8 14 23.5
29/08/21 22:50 1012 18.6 79 0 4.5 14 23.4
29/08/21 23:00 1012.1 18.4 79 0 4.7 25 23.6
29/08/21 23:10 1012.1 18.4 79 0 5.4 21 23.6
29/08/21 23:20 1012 18.2 80 0 5.4 21 23.5
29/08/21 23:30 1011.9 18 80 4.7 26 23.5
29/08/21 23:40 1012 18.3 80 0 3.9 30 23.6
29/08/21 23:50 1012 18.5 79 0 4.6 29 23.6
30/08/21 00:00 1011.9 18.5 79 4.5 29 23.8
30/08/21 00:10 1011.8 18.4 79 1 5.3 29 23.9
30/08/21 00:20 1011.8 18.2 79 0 5 38 24
30/08/21 00:30 1011.8 18.3 80 0 4.2 39 24
30/08/21 00:40 1011.9 18.3 79 4 27 23.9
30/08/21 00:50 1012 18.4 79 0 4.7 18 23.8
30/08/21 01:00 1012 18.2 79 0 4.5 26 23.9
30/08/21 01:10 1011.8 17.9 79 1 4.5 23 23.9
30/08/21 01:20 1011.8 17.9 80 3.9 29 23.9
30/08/21 01:30 1011.7 17.9 80 3 40 23.9
30/08/21 01:40 1011.8 18 81 0 2.9 28 23.8
30/08/21 01:50 1011.9 18.1 81 0 2.6 360 23.8
30/08/21 02:00 1011.8 18.1 80 0 2.9 4 23.9
30/08/21 02:10 1011.8 18.1 78 3.1 21 23.9
30/08/21 02:20 1011.7 18 78 0 2.8 42 23.8
30/08/21 02:30 1011.8 18.2 79 0 3.3 23 23.8
30/08/21 02:40 1011.8 18.1 80 0 3.7 25 23.8
30/08/21 02:50 1011.8 18 79 0 4.3 20 23.8
30/08/21 03:00 1011.8 17.7 78 0 3.8 20 23.8
30/08/21 03:10 1011.7 17.8 78 0 3.4 20 23.7
30/08/21 03:20 1011.7 17.7 78 0 3.5 21 23.7
30/08/21 03:30 1011.6 17.6 80 0 3.2 21 23.7
30/08/21 03:40 1011.5 17.7 81 0 4.2 24 23.7
30/08/21 03:50 1011.6 17.5 80 0 4.1 26 23.7
30/08/21 04:00 1011.5 17.2 80 0 4 29 23.7
30/08/21 04:10 1011.4 17.2 81 4 29 23.7
30/08/21 04:20 1011.4 17.1 81 3.5 40 23.6
30/08/21 04:30 1011.4 17.2 82 3.9 33 23.6
30/08/21 04:40 1011.3 17.4 82 3.7 26 23.6
30/08/21 04:50 1011.4 17.5 82 3.4 30 23.5
30/08/21 05:00 1011.4 17.4 83 3.4 29 23.6
30/08/21 05:10 1011.5 17.4 83 3.2 32 23.5
30/08/21 05:20 1011.4 17.5 83 0 3.8 33 23.5
30/08/21 05:30 1011.4 17.3 82 2 4 30 23.5
30/08/21 05:40 1011.5 17.4 83 8 4.7 22 23.6
30/08/21 05:50 1011.6 17.5 82 15 5.4 21 23.6
30/08/21 06:00 1011.6 17.7 82 22 5.6 25 23.5
30/08/21 06:10 1011.6 17.4 80 63 6 27 23.5
30/08/21 06:20 1011.7 17.1 79 107 5.2 26 23.5
30/08/21 06:30 1011.7 17.1 79 80 5.6 27 23.5
30/08/21 06:40 1011.7 17.5 79 195 4.7 25 23.4
30/08/21 06:50 1011.7 17.9 79 240 5.2 23 23.4
30/08/21 07:00 1011.7 18.1 77 167 5.1 22 23.4
30/08/21 07:10 1011.6 18.4 77 181 4.5 26 23.4
30/08/21 07:20 1011.7 18.2 75 133 5 22 23.4
30/08/21 07:30 1011.7 18.7 75 217 4.7 22 23.4
30/08/21 07:40 1011.7 18.7 73 245 4.5 27 23.4
30/08/21 07:50 1011.7 18.7 73 201 4.9 27 23.4
30/08/21 08:00 1011.7 18.8 73 201 5 30 23.4
30/08/21 08:10 1011.7 18.9 72 206 5.2 25 23.4
30/08/21 08:20 1011.8 19.7 71 297 4.8 27 23.4
30/08/21 08:30 1011.8 19.6 69 227 5.1 32 23.4
30/08/21 08:40 1011.8 19.2 69 174 4.8 37 23.4
30/08/21 08:50 1011.8 20.4 70 569 4.1 37 23.4
30/08/21 09:00 1011.8 21 65 590 4.2 39 23.5
30/08/21 09:10 1011.9 21.6 64 621 4.2 41 23.6
30/08/21 09:20 1011.9 21.6 62 641 4.3 44 23.6
30/08/21 09:30 1012 22.6 61 660 4.3 41 23.7
30/08/21 09:40 1012 22.3 58 686 4.2 24 23.7
30/08/21 09:50 1012.1 23 57 708 4 24 23.7
30/08/21 10:00 1012.2 23.4 54 727 3.6 25 23.7
30/08/21 10:10 1012.2 23.3 51 745 4.1 30 23.7
30/08/21 10:20 1012.2 23.5 51 755 4.5 31 23.7
30/08/21 10:30 1012.1 24 50 780 4.4 29 23.7
30/08/21 10:40 1012.2 23.9 46 787 3.8 41 23.7
30/08/21 10:50 1012.1 24.5 44 800 3.5 50 23.7
30/08/21 11:00 1012.1 24.9 44 815 3.3 50 23.7
30/08/21 11:10 1012 24.8 45 814 3.3 40 23.7
30/08/21 11:20 1011.9 25.2 46 820 2.8 45 23.7
30/08/21 11:30 1011.9 25.3 47 821 2.7 55 23.7
30/08/21 11:40 1011.8 25.2 48 826 2.3 65 23.7
30/08/21 11:50 1011.8 25.8 48 852 3.3 137 23.7
30/08/21 12:00 1011.8 25.1 50 811 3.2 120 23.7
30/08/21 12:10 1011.8 24 50 508 3 103 23.7
30/08/21 12:20 1011.8 25.8 53 659 2.8 123 23.7
30/08/21 12:30 1011.8 24.9 52 636 3.2 99 23.6
30/08/21 12:40 1011.7 24.5 51 848 2.8 102 23.7
30/08/21 12:50 1011.8 24.4 52 825 3.5 99 23.7
30/08/21 13:00 1011.7 24.9 53 528 3.1 110 23.7
30/08/21 13:10 1011.8 24.1 53 790 3.1 111 23.7
30/08/21 13:20 1011.7 24.1 53 782 3.9 95 23.7
30/08/21 13:30 1011.6 25.5 53 765 4.2 101 23.7
30/08/21 13:40 1011.4 25.2 54 751 3.7 103 23.7
30/08/21 13:50 1011.4 25.3 52 731 4.2 112 23.7
30/08/21 14:00 1011.3 25.3 49 718 4.1 117 23.7
30/08/21 14:10 1011.4 25.1 44 698 4.5 139 23.8
30/08/21 14:20 1011.4 25.1 45 670 5.1 146 23.8
30/08/21 14:30 1011.3 25 46 647 5 156 23.8
30/08/21 14:40 1011.2 24.7 46 623 5.5 139 23.8
30/08/21 14:50 1011.3 24.5 45 514 5.7 148 23.8
30/08/21 15:00 1011.3 24.3 45 582 5.3 137 23.8
30/08/21 15:10 1011.3 25.1 48 573 5.7 141 23.8
30/08/21 15:20 1011.2 24.2 46 333 5.6 140 23.8
30/08/21 15:30 1011.2 24.7 48 569 5.7 138 23.8
30/08/21 15:40 1011.2 24.4 49 581 6 143 23.8
30/08/21 15:50 1011.2 24.6 52 521 6.1 145 23.9
30/08/21 16:00 1011.2 24.5 52 370 5.8 142 23.9
30/08/21 16:10 1011.3 24.1 53 282 6.5 142 23.9
30/08/21 16:20 1011.4 23.7 56 249 6 135 23.9
30/08/21 16:30 1011.5 23.7 56 336 5.9 137 23.9
30/08/21 16:40 1011.6 23.6 56 81 5.1 123 23.9
30/08/21 16:50 1011.7 23.5 56 65 5.2 121 23.9
30/08/21 17:00 1011.7 23.5 57 40 4.4 98 24
30/08/21 17:10 1012 23.3 57 18 4.2 98 24
30/08/21 17:20 1012.6 23.3 58 7 3.7 87 24
30/08/21 17:30 1012.9 19.3 58 34 10.9 352 23.9
30/08/21 17:40 1012.8 19.2 64 7 7 102 23.9
30/08/21 17:50 1012.2 18.5 69 5 6.9 132 23.9
30/08/21 18:00 1011.7 19.5 74 15 7.4 136 23.8
30/08/21 18:10 1011.2 19.7 71 14 8.3 143 23.8
30/08/21 18:20 1010.5 19.6 71 3 9.2 151 23.8
30/08/21 18:30 1010.8 20.2 70 0 8.5 157 23.8
30/08/21 18:40 1011.6 20.1 73 0 4.3 122 23.8
30/08/21 18:50 1012 20.3 75 0 4.2 143 23.8
30/08/21 19:00 1012.2 19.7 76 0 3.5 344 23.8
30/08/21 19:10 1012.3 19.6 79 3.8 4 23.8
30/08/21 19:20 1012.5 19.6 82 0 3.2 355 23.7
30/08/21 19:30 1012.6 19.6 83 0 3.9 12 23.7
30/08/21 19:40 1012.8 19.5 84 0 2.8 4 23.7
30/08/21 19:50 1012.8 19.4 84 0 2.6 16 23.7
30/08/21 20:00 1012.7 19.3 84 3.6 41 23.7
30/08/21 20:10 1012.6 19.1 84 0 3.9 46 23.7
30/08/21 20:20 1012.7 19.2 81 0 3.4 43 23.7
30/08/21 20:30 1012.8 19.2 82 2.6 35 23.7
30/08/21 20:40 1012.9 19.3 83 0 3.4 44 23.6
30/08/21 20:50 1013.1 19.4 82 0 3 40 23.6
30/08/21 21:00 1013.1 19.2 82 3 38 23.5
30/08/21 21:10 1013.2 19.3 82 0 2.9 34 23.5
30/08/21 21:20 1013.1 19.1 82 0 2.3 46 23.4
30/08/21 21:30 1013.3 19.3 82 3.1 27 23.4
30/08/21 21:40 1013.3 19.3 83 3.4 19 23.4
30/08/21 21:50 1013.3 19.1 83 0 2.8 6 23.3
30/08/21 22:00 1013.4 19 83 0 2.5 352 23.4
30/08/21 22:10 1013.4 18.8 82 0 3.4 3 23.3
30/08/21 22:20 1013.4 18.7 82 0 3.6 360 23.3
30/08/21 22:30 1013.4 18.7 84 0 3.4 7 23.2
30/08/21 22:40 1013.4 18.6 84 0 3.2 7 23.2
30/08/21 22:50 1013.5 18.6 85 1.9 9 23.2
30/08/21 23:00 1013.7 18.4 85 4.1 9 23.3
30/08/21 23:10 1013.7 18.5 86 0 3.7 15 23.2
30/08/21 23:20 1013.7 18.5 86 0 2.1 354 23.2
30/08/21 23:30 1013.8 18.5 86 0 1.6 334 23.2
30/08/21 23:40 1013.9 18.3 86 0 3.6 354 23.1
30/08/21 23:50 1013.9 18.2 85 4.4 5 23.1
31/08/21 00:00 1014 18.1 85 4.9 22 23.2
31/08/21 00:10 1014 18.1 87 0 5.3 22 23.1
31/08/21 00:20 1014 18 87 4.5 22 23.1
31/08/21 00:30 1014 18.1 88 0 4.9 17 23.1
31/08/21 00:40 1014.1 18 87 4.4 20 23.1
31/08/21 00:50 1014.1 18 87 4.4 19 23.1
31/08/21 01:00 1014.1 18 87 0 4 26 23.2
31/08/21 01:10 1014.2 18 88 4.5 21 23.3
31/08/21 01:20 1014.2 18 88 4 21 23.2
31/08/21 01:30 1014.2 18 88 0 4 21 23.3
31/08/21 01:40 1014.1 17.8 88 0 4.3 21 23.4
31/08/21 01:50 1014.2 17.8 88 4.4 24 23.4
31/08/21 02:00 1014.3 17.9 88 5 27 23.4
31/08/21 02:10 1014.3 18 88 0 4.4 27 23.5
31/08/21 02:20 1014.3 18 87 0 4 32 23.6
31/08/21 02:30 1014.2 18 86 0 4.1 32 23.6
31/08/21 02:40 1014.3 18.1 86 0 4.2 26 23.6
31/08/21 02:50 1014.3 18.1 85 0 3.7 26 23.5
31/08/21 03:00 1014.4 18 84 0 3.2 28 23.5
31/08/21 03:10 1014.5 18.1 84 0 3 35 23.5
31/08/21 03:20 1014.5 18.1 84 0 3.6 28 23.5
31/08/21 03:30 1014.5 18 84 0 3.9 23 23.6
31/08/21 03:40 1014.5 18 84 0 4.1 30 23.5
31/08/21 03:50 1014.4 17.7 84 0 3.4 29 23.5
31/08/21 04:00 1014.4 17.5 84 3.9 35 23.4
31/08/21 04:10 1014.4 17.6 85 4.5 27 23.6
31/08/21 04:20 1014.4 17.4 85 0 4.3 28 23.5
31/08/21 04:30 1014.5 17.4 85 0 4.3 30 23.6
31/08/21 04:40 1014.4 17.4 86 4.2 30 23.4
31/08/21 04:50 1014.4 17.3 86 0 3.6 31 23.4
31/08/21 05:00 1014.4 17.2 86 0 4.3 30 23.4
31/08/21 05:10 1014.5 17.3 86 0 3.5 40 23.5
31/08/21 05:20 1014.6 17.4 87 0 3.3 32 23.5
31/08/21 05:30 1014.6 17.4 87 3 4.4 25 23.6
31/08/21 05:40 1014.6 17.3 86 7 4.4 24 23.5
31/08/21 05:50 1014.6 17.7 86 14 4.7 27 23.5
31/08/21 06:00 1014.7 17.6 84 29 4.9 20 23.5
31/08/21 06:10 1014.9 17.6 83 62 4.5 20 23.5
31/08/21 06:20 1015 17.2 82 92 5 26 23.5
31/08/21 06:30 1014.9 17.2 82 127 5.5 26 23.4
31/08/21 06:40 1014.9 17.2 83 155 5.4 28 23.4
31/08/21 06:50 1014.9 17.1 83 184 5.8 28 23.4
31/08/21 07:00 1014.8 17.4 83 216 5.2 25 23.5
31/08/21 07:10 1014.9 18.2 83 249 5.1 21 23.4
31/08/21 07:20 1015 18.9 81 277 4.8 26 23.4
31/08/21 07:30 1015 19 78 310 4.5 16 23.5
31/08/21 07:40 1015 19.2 77 343 5 19 23.5
31/08/21 07:50 1015.1 19.3 75 371 5.1 14 23.5
31/08/21 08:00 1015 19.4 74 401 4.9 18 23.5
31/08/21 08:10 1015 20 73 427 5.2 18 23.5
31/08/21 08:20 1015.1 20.3 72 455 5.1 27 23.5
31/08/21 08:30 1015.1 20.5 70 488 4.8 25 23.5
31/08/21 08:40 1015.1 21.1 70 507 4.4 27 23.5
31/08/21 08:50 1015.2 21.4 69 556 3.9 29 23.5
31/08/21 09:00 1015.4 22 68 567 4.4 23 23.5
31/08/21 09:10 1015.4 21.8 66 594 4.3 13 23.5
31/08/21 09:20 1015.6 21.9 66 606 4.5 21 23.5
31/08/21 09:30 1015.7 22.4 66 698 4.3 27 23.5
31/08/21 09:40 1015.6 22.8 65 674 4.6 24 23.5
31/08/21 09:50 1015.6 23 64 691 4.1 27 23.6
31/08/21 10:00 1015.6 23.6 63 709 4.2 24 23.6
31/08/21 10:10 1015.6 23.8 62 721 3.6 15 23.5
31/08/21 10:20 1015.6 24.2 61 737 2.9 21 23.8
31/08/21 10:30 1015.7 24.9 60 780 2.4 28 23.6
31/08/21 10:40 1015.7 24.6 58 740 2.6 33 23.6
31/08/21 10:50 1015.8 25.2 57 800 1.9 28 23.6
31/08/21 11:00 1015.7 25.3 56 812 1.8 19 23.7
31/08/21 11:10 1015.7 25 56 813 1.3 29 23.7
31/08/21 11:20 1015.6 25.3 56 774 1.3 30 23.6
31/08/21 11:30 1015.7 25.8 56 883 1.1 80 23.9
31/08/21 11:40 1015.7 25.9 55 941 1.5 145 23.7
31/08/21 11:50 1015.6 24.8 55 583 1.8 166 23.7
31/08/21 12:00 1015.6 24.5 56 956 1.9 159 23.8
31/08/21 12:10 1015.6 24.2 58 884 1.9 167 23.7
31/08/21 12:20 1015.5 23.9 59 815 2.3 144 23.8
31/08/21 12:30 1015.5 24.2 60 827 3 140 23.8
31/08/21 12:40 1015.4 24.1 57 803 3 133 23.8
31/08/21 12:50 1015.4 24.6 59 794 2.9 134 23.8
31/08/21 13:00 1015.4 24.8 58 786 3 130 23.8
31/08/21 13:10 1015.4 24.6 59 774 2.8 141 23.8
31/08/21 13:20 1015.3 24.6 59 760 3.2 143 23.8
31/08/21 13:30 1015.3 24.3 59 752 3 140 23.8
31/08/21 13:40 1015.3 24.5 59 727 4 147 23.8
31/08/21 13:50 1015.3 24.8 58 726 3.8 145 23.8
31/08/21 14:00 1015.2 24.7 58 676 4.3 143 23.8
31/08/21 14:10 1015.2 24.4 57 677 4.3 145 23.9
31/08/21 14:20 1015.3 24.6 58 658 4.3 142 23.9
31/08/21 14:30 1015.2 24.3 58 617 4.1 141 23.9
31/08/21 14:40 1015.3 24.3 58 615 4.2 153 23.8
31/08/21 14:50 1015.2 24.4 57 602 4.5 145 23.8
31/08/21 15:00 1015.2 24.4 59 584 4.2 157 23.8
31/08/21 15:10 1015.2 24.2 62 558 3.8 158 23.9
31/08/21 15:20 1015.1 24.1 62 537 3.2 151 23.8
31/08/21 15:30 1015 24.2 63 510 3.7 157 23.8
31/08/21 15:40 1015 24.2 63 477 3.6 151 23.9
31/08/21 15:50 1014.9 24.1 63 442 3.5 171 23.9
31/08/21 16:00 1014.8 24 63 415 3.4 169 23.9
31/08/21 16:10 1014.8 24.1 64 376 3.2 167 23.9
31/08/21 16:20 1014.9 24 63 339 3.2 167 23.9
31/08/21 16:30 1015 23.6 64 297 3.2 169 23.9
31/08/21 16:40 1015.2 23.7 63 269 2.7 184 23.9
31/08/21 16:50 1015.2 23.5 65 213 2.3 180 24
31/08/21 17:00 1015.3 23.5 65 80 2.2 184 24
31/08/21 17:10 1015.1 23 66 82 1.4 182 24
31/08/21 17:20 1015 23.2 67 80 2 187 24
31/08/21 17:30 1015 23 66 66 2.1 184 24
31/08/21 17:40 1015 23 68 45 2.8 185 24
31/08/21 17:50 1015.2 23 70 38 2.7 173 24
31/08/21 18:00 1015.1 22.8 71 37 3 174 24
31/08/21 18:10 1015 22.8 71 27 3.6 176 24
31/08/21 18:20 1015.1 22.7 72 16 4.1 182 24
31/08/21 18:30 1015.1 22.6 73 10 4.6 186 24
31/08/21 18:40 1015.1 22.6 74 4 4.4 183 24
31/08/21 18:50 1015.2 22.5 74 0 4.3 180 24
31/08/21 19:00 1015.4 22.5 74 0 4.1 186 24
31/08/21 19:10 1015.5 22.5 75 0 4 179 23.9
31/08/21 19:20 1015.7 22.5 75 3.6 181 23.9
31/08/21 19:30 1015.9 22.5 76 0 4 188 23.9
31/08/21 19:40 1015.9 22.4 76 0 3.8 194 23.9
31/08/21 19:50 1016 22.4 75 0 3.1 192 23.9
31/08/21 20:00 1016.1 22.4 74 0 2.1 200 23.8
31/08/21 20:10 1016.2 22.3 74 0 1.8 206 23.8
31/08/21 20:20 1016.2 22.2 74 1.4 199 23.8
31/08/21 20:30 1016.4 22.2 75 0 1.6 217 23.8
31/08/21 20:40 1016.4 22.1 75 0 1 218 23.7
31/08/21 20:50 1016.4 22.1 76 1.3 200 23.7
31/08/21 21:00 1016.5 22.1 76 0 1 217 23.7
31/08/21 21:10 1016.5 22.1 77 1 226 23.7
31/08/21 21:20 1016.5 22 80 1.3 252 23.7
31/08/21 21:30 1016.6 21.9 81 0 1.4 250 23.6
31/08/21 21:40 1016.7 21.7 81 0 1.2 237 23.6
31/08/21 21:50 1016.8 21.7 81 1.5 255 23.6
31/08/21 22:00 1016.8 21.6 81 1.4 255 23.6
31/08/21 22:10 1016.9 21.6 82 1.6 282 23.5
31/08/21 22:20 1016.9 21.4 81 0 1.5 276 23.5
31/08/21 22:30 1017 21.4 81 1.6 291 23.5
31/08/21 22:40 1017.1 21.4 81 1.6 291 23.5
31/08/21 22:50 1017.3 21.3 81 0 1.8 310 23.5
31/08/21 23:00 1017.3 21.2 81 1 322 23.4
31/08/21 23:10 1017.4 21.2 81 1.6 344 23.4
31/08/21 23:20 1017.5 21.2 82 1.8 348 23.4
31/08/21 23:30 1017.4 21.2 82 2 352 23.4
31/08/21 23:40 1017.5 21.2 83 1.8 2 23.4
31/08/21 23:50 1017.5 21 83 2.4 351 23.4
01/09/21 00:00 1017.6 21 83 2.9 7 23.3
01/09/21 00:10 1017.6 20.7 83 0 2.2 360 23.3
01/09/21 00:20 1017.6 20.5 81 0 2.8 10 23.3
01/09/21 00:30 1017.6 20.3 80 0 2.5 4 23.3
01/09/21 00:40 1017.6 20.3 81 2.1 11 23.3
01/09/21 00:50 1017.6 20.2 81 0 1.7 7 23.3
01/09/21 01:00 1017.6 20.3 81 0 1.5 1 23.2
01/09/21 01:10 1017.5 20.1 81 1.4 3 23.2
01/09/21 01:20 1017.6 19.9 81 1.8 9 23.3
01/09/21 01:30 1017.6 19.8 81 2.8 17 23.4
01/09/21 01:40 1017.7 19.7 81 0 3.6 17 23.3
01/09/21 01:50 1017.6 19.4 82 0 4.2 16 23.4
01/09/21 02:00 1017.7 19.3 82 0 4.6 17 23.3
01/09/21 02:10 1017.7 19.4 84 3.8 17 23.3
01/09/21 02:20 1017.7 19.5 84 3.6 18 23.4
01/09/21 02:30 1017.7 19.5 83 3.5 24 23.4
01/09/21 02:40 1017.8 19.5 83 3.7 22 23.4
01/09/21 02:50 1017.9 19.4 84 0 4.1 19 23.4
01/09/21 03:00 1017.8 19.5 83 0 3.9 23 23.5
01/09/21 03:10 1018 19.3 83 0 3.9 21 23.6
01/09/21 03:20 1018 19.1 83 0 3 12 23.6
01/09/21 03:30 1018 19 83 0 2.9 11 23.6
01/09/21 03:40 1018.1 18.9 84 0 2.9 10 23.5
01/09/21 03:50 1018.1 18.8 84 0 3.6 3 23.6
01/09/21 04:00 1018 18.7 84 0 3.8 2 23.7
01/09/21 04:10 1018.2 18.6 84 4.1 15 23.7
01/09/21 04:20 1018.3 18.7 84 4.3 21 23.7
01/09/21 04:30 1018.4 18.6 83 0 4.4 24 23.8
01/09/21 04:40 1018.6 18.5 81 0 3.8 26 23.9
01/09/21 04:50 1018.7 18.4 81 0 3.3 31 23.8
01/09/21 05:00 1018.7 18.6 82 0 4.5 26 23.8
01/09/21 05:10 1018.8 18.5 82 0 4.2 24 23.8
01/09/21 05:20 1018.8 18.6 82 0 4.7 25 23.8
01/09/21 05:30 1018.9 18.5 81 2 4.8 26 23.8
01/09/21 05:40 1018.9 18.7 80 6 5.1 24 23.7
01/09/21 05:50 1019 18.9 79 17 4.7 22 23.7
01/09/21 06:00 1018.9 18.9 79 45 5.1 16 23.7
01/09/21 06:10 1019 18.9 77 69 5.2 10 23.7
01/09/21 06:20 1019 19.2 96 4.8 6 23.6
01/09/21 06:30 1019.1 19.3 76 126 4.8 5 23.6
01/09/21 06:40 1018.9 19.5 76 158 4.8 10 23.6
01/09/21 06:50 1018.9 19.3 75 190 3.7 3 23.6
01/09/21 07:00 1018.8 19.5 75 222 2.7 351 23.6
01/09/21 07:10 1018.8 20.3 74 255 2.7 352 23.6
01/09/21 07:20 1018.8 20.6 72 285 1.9 336 23.7
01/09/21 07:30 1018.8 21.6 70 318 2.4 0 23.7
01/09/21 07:40 1018.8 21.2 67 349 2.9 9 23.7
01/09/21 07:50 1018.9 22 66 382 3.9 26 23.7
01/09/21 08:00 1019 22 64 414 4.9 27 23.7
01/09/21 08:10 1018.9 22.2 63 441 5.3 24 23.7
01/09/21 08:20 1019 22.4 62 471 5.4 25 23.7
01/09/21 08:30 1018.9 22.9 62 500 4.7 20 23.7
01/09/21 08:40 1018.9 23.5 61 528 4.8 17 23.7
01/09/21 08:50 1019.1 23.8 59 554 4.9 28 23.7
01/09/21 09:00 1019.1 24 56 581 4 23 23.8
01/09/21 09:10 1019.1 24.6 56 609 4.1 21 23.7
01/09/21 09:20 1019 24.9 55 635 3.9 28 23.7
01/09/21 09:30 1019.1 25.2 54 660 3.6 26 23.7
01/09/21 09:40 1019.2 25.6 52 676 3 27 23.7
01/09/21 09:50 1019.3 25.7 50 692 2.1 25 23.7
01/09/21 10:00 1019.3 26.3 49 705 0.7 39 23.7
01/09/21 10:10 1019.4 25.6 49 729 1 151 23.7
01/09/21 10:20 1019.4 25.9 48 756 2.1 110 23.7
01/09/21 10:30 1019.5 25.5 48 759 1.5 124 23.8
01/09/21 10:40 1019.5 25.7 50 773 1.3 140 23.9
01/09/21 10:50 1019.5 26.6 49 794 2.5 165 23.8
01/09/21 11:00 1019.5 25.3 50 802 2.3 180 23.9
01/09/21 11:10 1019.5 24.7 52 816 2.6 180 23.9
01/09/21 11:20 1019.5 24.8 52 822 2.4 152 23.9
01/09/21 11:30 1019.6 24.9 53 828 2.9 147 24
01/09/21 11:40 1019.6 24.2 53 831 2.4 144 24
01/09/21 11:50 1019.5 25 54 833 2.5 151 24
01/09/21 12:00 1019.6 24.9 54 835 2.4 142 24
01/09/21 12:10 1019.6 25.2 53 835 2.8 150 24.1
01/09/21 12:20 1019.7 25.1 53 831 2.9 147 24
01/09/21 12:30 1019.7 25.2 52 827 2.8 164 24.1
01/09/21 12:40 1019.7 25.3 51 822 2.7 169 24.1
01/09/21 12:50 1019.7 25.2 50 817 2.7 173 24.1
01/09/21 13:00 1019.7 24.9 47 807 2.4 166 24.1
01/09/21 13:10 1019.7 25.5 48 794 2.2 163 24.1
01/09/21 13:20 1019.7 26.5 48 782 2.4 169 24.2
01/09/21 13:30 1019.8 25.7 46 768 2.6 162 24.2
01/09/21 13:40 1019.7 25.9 46 754 2.6 176 24.2
01/09/21 13:50 1019.6 25.9 45 737 2.7 179 24.2
01/09/21 14:00 1019.5 25.8 47 716 2 166 24.2
01/09/21 14:10 1019.5 25.9 45 695 1.7 158 24.3
01/09/21 14:20 1019.4 25.7 44 676 2.8 174 24.2
01/09/21 14:30 1019.4 25.7 44 655 2.9 167 24.2
01/09/21 14:40 1019.4 25.5 44 631 2.9 171 24.2
01/09/21 14:50 1019.3 25.7 45 605 2.4 173 24.2
01/09/21 15:00 1019.3 25.7 45 579 2.3 177 24.2
01/09/21 15:10 1019.3 25.9 45 553 2.5 169 24.2
01/09/21 15:20 1019.2 25.8 44 527 3.1 177 24.3
01/09/21 15:30 1019.2 25.7 45 499 2.9 182 24.3
01/09/21 15:40 1019.1 25.9 45 468 2.5 172 24.3
01/09/21 15:50 1019.1 25.7 47 436 2.4 169 24.3
01/09/21 16:00 1019 25.6 46 406 2.6 163 24.3
01/09/21 16:10 1019 25 46 375 2.6 173 24.3
01/09/21 16:20 1019 25.5 47 345 3.2 178 24.3
01/09/21 16:30 1018.9 25.2 47 314 3.4 176 24.3
01/09/21 16:40 1018.9 24.9 47 282 3 182 24.4
01/09/21 16:50 1018.8 25.1 48 250 2.9 179 24.4
01/09/21 17:00 1018.7 25.3 50 219 3.3 167 24.4
01/09/21 17:10 1018.8 24.5 51 188 3.4 156 24.4
01/09/21 17:20 1018.7 24.2 53 156 3.1 162 24.4
01/09/21 17:30 1018.8 24.1 55 127 2.9 162 24.4
01/09/21 17:40 1018.8 24.1 55 99 3 165 24.4
01/09/21 17:50 1018.8 24.1 57 72 3 160 24.4
01/09/21 18:00 1018.8 24 57 48 2.7 158 24.4
01/09/21 18:10 1018.7 23.9 59 31 2.4 166 24.3
01/09/21 18:20 1018.8 23.8 58 22 2.2 161 24.4
01/09/21 18:30 1018.8 23.8 62 15 2.3 162 24.3
01/09/21 18:40 1018.8 23.6 61 7 1.8 167 24.3
01/09/21 18:50 1018.8 23.6 61 2 1.6 167 24.3
01/09/21 19:00 1018.9 23.5 61 0 0.9 150 24.3
01/09/21 19:10 1019 23.5 61 1.1 176 24.3
01/09/21 19:20 1019.1 23.4 62 1.8 185 24.3
01/09/21 19:30 1019.2 23.2 63 1.4 194 24.3
01/09/21 19:40 1019.3 23.2 64 1.5 195 24.3
01/09/21 19:50 1019.4 23.1 64 1.7 195 24.3
01/09/21 20:00 1019.5 23.1 63 1.2 187 24.3
01/09/21 20:10 1019.5 23.1 62 0.8 178 24.3
01/09/21 20:20 1019.6 22.9 63 1.1 169 24.3
01/09/21 20:30 1019.7 23 64 1.1 161 24.2
01/09/21 20:40 1019.8 23 67 1.1 148 24.2
01/09/21 20:50 1019.8 23 68 1.5 147 24.2
01/09/21 21:00 1019.9 22.9 70 1.2 163 24.1
01/09/21 21:10 1020 22.8 71 1.3 189 24.1
01/09/21 21:20 1020.1 22.7 73 1.7 201 24.1
01/09/21 21:30 1020.2 22.6 74 1.8 204 24
01/09/21 21:40 1020.2 22.4 74 1.3 201 24
01/09/21 21:50 1020.3 22.5 74 2.2 187 23.9
01/09/21 22:00 1020.4 22.6 76 2.6 194 23.9
01/09/21 22:10 1020.5 22.5 76 2.6 196 23.9
01/09/21 22:20 1020.6 22.6 73 2.9 192 23.8
01/09/21 22:30 1020.6 22.6 71 2.7 187 23.8
01/09/21 22:40 1020.7 22.4 71 2.5 184 23.8
01/09/21 22:50 1020.8 22.5 71 2.5 187 23.8
01/09/21 23:00 1020.9 22.4 72 2.2 190 23.8
01/09/21 23:10 1021 22.1 73 0 1.8 202 23.8
01/09/21 23:20 1021.1 21.7 73 0 0.6 272 23.7
01/09/21 23:30 1021.1 21.6 74 0.7 228 23.7
01/09/21 23:40 1021.2 21.4 76 0 1.1 310 23.7
01/09/21 23:50 1021.2 21.3 78 1.5 15 23.7
02/09/21 00:00 1021.3 21.2 79 1.2 8 23.7
02/09/21 00:10 1021.3 21.1 79 2 17 23.7
02/09/21 00:20 1021.4 21.1 80 2.6 28 23.7
02/09/21 00:30 1021.4 21.1 83 0 2.9 44 23.6
02/09/21 00:40 1021.5 20.9 78 0 4 50 23.6
02/09/21 00:50 1021.4 21.1 76 4 55 23.6
02/09/21 01:00 1021.4 21 75 0 3.5 57 23.6
02/09/21 01:10 1021.5 21.1 73 2.9 67 23.6
02/09/21 01:20 1021.6 21 72 2.8 78 23.5
02/09/21 01:30 1021.5 20.9 71 2.4 70 23.5
02/09/21 01:40 1021.5 21 71 2.5 71 23.5
02/09/21 01:50 1021.6 21 71 2.6 76 23.5
02/09/21 02:00 1021.5 21 72 2.8 67 23.5
02/09/21 02:10 1021.6 20.9 74 2.7 67 23.5
02/09/21 02:20 1021.6 20.5 75 0 3 37 23.5
02/09/21 02:30 1021.7 19.9 71 0 3.9 30 23.5
02/09/21 02:40 1021.8 19.4 73 0 3.7 32 23.5
02/09/21 02:50 1021.8 18.9 75 0 4.3 20 23.4
02/09/21 03:00 1021.8 18.9 77 0 4.5 27 23.5
02/09/21 03:10 1021.9 18.8 78 0 4.1 25 23.6
02/09/21 03:20 1022 18.8 78 0 3.9 13 23.8
02/09/21 03:30 1022 18.6 78 3.8 25 23.9
02/09/21 03:40 1022 18.5 79 0 3.2 23 23.9
02/09/21 03:50 1022 18.8 80 2.6 31 23.9
02/09/21 04:00 1022 18.7 80 1.8 20 24.1
02/09/21 04:10 1022 18.8 81 1.5 29 24.1
02/09/21 04:20 1022.1 18.9 81 1.6 17 24.2
02/09/21 04:30 1022.1 18.9 81 2.3 354 24.2
02/09/21 04:40 1022.1 19 81 2 360 24.2
02/09/21 04:50 1022.1 18.6 79 0 2.9 352 24.2
02/09/21 05:00 1022.2 18.1 76 0 3.3 348 24.1
02/09/21 05:10 1022.3 18.2 76 0 3.1 357 24.1
02/09/21 05:20 1022.3 18.1 77 0 2.8 3 24
02/09/21 05:30 1022.3 18 78 2 3.8 2 24
02/09/21 05:40 1022.3 18.4 79 6 3.7 18 24
02/09/21 05:50 1022.4 18.4 79 12 3.7 26 23.9
02/09/21 06:00 1022.5 18.4 80 19 3 26 23.9
02/09/21 06:10 1022.5 18.2 80 44 3.8 36 23.9
02/09/21 06:20 1022.6 18.6 79 77 3 35 23.9
02/09/21 06:30 1022.7 19 79 118 2.4 35 23.9
02/09/21 06:40 1022.8 19.5 79 101 2.7 39 24
02/09/21 06:50 1022.7 19.6 77 92 2.4 49 23.9
02/09/21 07:00 1022.8 19.7 77 104 2.2 42 23.9
02/09/21 07:10 1022.8 20.4 76 248 2 46 23.9
02/09/21 07:20 1022.8 21.6 74 299 1.9 39 24
02/09/21 07:30 1022.9 22.1 71 313 1.9 48 23.9
02/09/21 07:40 1022.9 22.6 68 346 2.1 44 24
02/09/21 07:50 1022.9 22.7 67 369 2.3 47 24
02/09/21 08:00 1023 23.4 65 401 1.8 47 24
02/09/21 08:10 1023.1 23.6 63 429 1.6 59 24
02/09/21 08:20 1023.1 23.8 60 458 1.8 67 24
02/09/21 08:30 1023.2 24.7 59 487 2 88 24
02/09/21 08:40 1023.2 24.4 56 512 2 92 24
02/09/21 08:50 1023.3 25.2 55 542 2.1 93 24
02/09/21 09:00 1023.3 25.3 50 573 2.1 96 24
02/09/21 09:10 1023.2 25.2 52 596 2.4 88 24
02/09/21 09:20 1023.3 25.6 51 621 2.8 95 24
02/09/21 09:30 1023.3 25.6 50 643 3 102 24
02/09/21 09:40 1023.3 26.1 48 672 3.3 130 24
02/09/21 09:50 1023.3 25.6 46 686 2.7 137 24
02/09/21 10:00 1023.3 26.2 44 712 3.5 132 24
02/09/21 10:10 1023.4 25.4 44 727 3.4 139 24
02/09/21 10:20 1023.4 24.7 46 743 3 135 24
02/09/21 10:30 1023.3 24.9 47 762 3.3 141 24
02/09/21 10:40 1023.3 24.7 48 775 3.3 133 24
02/09/21 10:50 1023.3 24.7 48 789 3.6 126 24.1
02/09/21 11:00 1023.3 25.4 48 796 3 127 24.1
02/09/21 11:10 1023.3 25.1 49 806 3.9 135 24.1
02/09/21 11:20 1023.3 26.2 47 804 3.2 137 24.2
02/09/21 11:30 1023.2 24.8 45 813 2.5 147 24.2
02/09/21 11:40 1023.2 25.6 46 821 3.1 135 24.2
02/09/21 11:50 1023.2 25.1 46 817 3.4 128 24.2
02/09/21 12:00 1023.1 25.8 45 820 2.9 135 24.2
02/09/21 12:10 1023.1 26 45 823 3 130 24.2
02/09/21 12:20 1022.9 25.9 44 823 3.2 168 24.2
02/09/21 12:30 1022.9 25.5 43 817 2.2 159 24.3
02/09/21 12:40 1022.7 24.7 43 813 2.8 167 24.3
02/09/21 12:50 1022.8 24.6 43 810 3.5 152 24.3
02/09/21 13:00 1022.7 25.5 43 797 3.2 150 24.3
02/09/21 13:10 1022.7 25.1 43 787 3.7 157 24.3
02/09/21 13:20 1022.5 24.9 45 770 3.1 141 24.3
02/09/21 13:30 1022.4 25.2 44 760 3.4 132 24.3
02/09/21 13:40 1022.3 25.5 44 741 3.1 152 24.3
02/09/21 13:50 1022.1 24.7 42 722 2.6 158 24.3
02/09/21 14:00 1022.1 25 42 703 3 158 24.3
02/09/21 14:10 1021.9 25.2 44 682 3.1 161 24.3
02/09/21 14:20 1021.9 25.3 43 661 3.5 162 24.3
02/09/21 14:30 1021.8 24.7 44 637 3.6 161 24.3
02/09/21 14:40 1021.7 25.2 44 610 3.4 167 24.3
02/09/21 14:50 1021.7 25 42 588 3.6 167 24.3
02/09/21 15:00 1021.7 25 44 561 4.1 174 24.3
02/09/21 15:10 1021.6 25 44 537 4 164 24.3
02/09/21 15:20 1021.3 24.7 44 508 3.8 163 24.3
02/09/21 15:30 1021.2 24.5 46 479 3.1 163 24.3
02/09/21 15:40 1021.1 24.7 44 451 3.2 157 24.4
02/09/21 15:50 1020.9 24.9 44 423 3.1 164 24.4
02/09/21 16:00 1020.9 24.5 44 392 2.9 145 24.4
02/09/21 16:10 1020.9 24.3 44 360 3.3 164 24.4
02/09/21 16:20 1020.9 24.7 46 331 3.3 169 24.4
02/09/21 16:30 1020.9 24.3 46 300 3.4 167 24.4
02/09/21 16:40 1020.8 24.5 47 268 2.8 161 24.4
02/09/21 16:50 1020.9 24.5 47 238 3 171 24.4
02/09/21 17:00 1020.8 24.3 46 208 3.1 173 24.4
02/09/21 17:10 1020.8 24.1 47 177 3.4 181 24.4
02/09/21 17:20 1020.8 23.9 47 147 3.1 176 24.4
02/09/21 17:30 1020.7 24 48 119 2.7 169 24.4
02/09/21 17:40 1020.5 23.8 46 93 2.6 178 24.4
02/09/21 17:50 1020.4 23.6 48 67 2.4 169 24.4
02/09/21 18:00 1020.4 23.7 48 45 2.9 169 24.4
02/09/21 18:10 1020.4 23.6 50 30 2.5 179 24.4
02/09/21 18:20 1020.3 23.4 51 21 2.5 198 24.4
02/09/21 18:30 1020.3 23.3 50 13 2 176 24.4
02/09/21 18:40 1020.2 23.2 52 6 1.6 202 24.4
02/09/21 18:50 1020.3 23.1 53 2 1.5 194 24.4
02/09/21 19:00 1020.3 23.1 52 0 1.3 185 24.3
02/09/21 19:10 1020.3 22.9 53 1.7 199 24.3
02/09/21 19:20 1020.4 22.9 55 1.6 208 24.3
02/09/21 19:30 1020.5 22.9 56 1.7 199 24.3
02/09/21 19:40 1020.5 22.9 57 1.9 205 24.3
02/09/21 19:50 1020.5 22.8 58 1.3 222 24.3
02/09/21 20:00 1020.6 22.7 58 1.8 217 24.3
02/09/21 20:10 1020.6 22.6 57 1.8 209 24.3
02/09/21 20:20 1020.7 22.6 56 1.8 211 24.3
02/09/21 20:30 1020.7 22.6 56 1.6 211 24.3
02/09/21 20:40 1020.7 22.6 57 1.8 205 24.3
02/09/21 20:50 1020.8 22.5 57 1.9 209 24.3
02/09/21 21:00 1020.8 22.6 56 1.6 208 24.3
02/09/21 21:10 1020.9 22.5 56 1.9 201 24.3
02/09/21 21:20 1020.9 22.5 57 2.1 204 24.3
02/09/21 21:30 1021 22.5 56 2.2 197 24.3
02/09/21 21:40 1021 22.5 56 1.9 213 24.2
02/09/21 21:50 1021 22.5 57 1.9 209 24.2
02/09/21 22:00 1021.1 22.4 56 1.8 203 24.2
02/09/21 22:10 1021.2 22.3 57 1.8 205 24.2
02/09/21 22:20 1021.2 22.1 57 0 1.1 218 24.2
02/09/21 22:30 1021.3 22.1 57 0 0.8 220 24.1
02/09/21 22:40 1021.3 22.1 60 0.4 312 24.1
02/09/21 22:50 1021.2 21.7 64 1.1 329 24.1
02/09/21 23:00 1021.3 21.4 64 0 2.2 326 24
02/09/21 23:10 1021.3 21.2 66 0 2 348 24
02/09/21 23:20 1021.3 21.2 67 0 2 338 24
02/09/21 23:30 1021.3 21.1 66 0 1.4 353 23.9
02/09/21 23:40 1021.3 21 66 0 1.5 347 23.9
02/09/21 23:50 1021.3 21.2 66 1.8 356 23.9
03/09/21 00:00 1021.2 21.1 66 2.5 2 23.9
03/09/21 00:10 1021.1 21.1 65 2.7 7 23.9
03/09/21 00:20 1021 21.1 66 3.4 16 23.8
03/09/21 00:30 1021 21 64 3.2 11 23.8
03/09/21 00:40 1020.9 21.1 66 3.2 19 23.8
03/09/21 00:50 1020.8 20.8 66 0 2.9 26 23.8
03/09/21 01:00 1020.9 20.8 67 0 3.4 22 23.8
03/09/21 01:10 1020.9 20.7 69 0 3.1 28 23.8
03/09/21 01:20 1020.9 20.6 69 3.3 25 23.7
03/09/21 01:30 1020.9 20.4 69 3.4 19 23.7
03/09/21 01:40 1020.8 20.4 71 3.5 20 23.7
03/09/21 01:50 1020.8 19.8 69 0 4.2 16 23.7
03/09/21 02:00 1020.8 19.6 69 0 4.1 11 23.7
03/09/21 02:10 1020.7 19.4 70 0 3.2 11 23.6
03/09/21 02:20 1020.6 19.4 71 0 4.3 17 23.6
03/09/21 02:30 1020.5 19.6 71 5.4 26 23.6
03/09/21 02:40 1020.4 19.4 70 0 4.6 25 23.6
03/09/21 02:50 1020.4 19.3 70 4.7 18 23.6
03/09/21 03:00 1020.3 19.4 68 5.3 24 23.7
03/09/21 03:10 1020.2 19.6 68 4.7 23 23.6
03/09/21 03:20 1020.3 19.4 69 4.9 23 23.5
03/09/21 03:30 1020.1 19.3 68 4.2 20 23.5
03/09/21 03:40 1020.1 19.5 68 4.4 21 23.5
03/09/21 03:50 1020.2 19.3 68 0 4.3 16 23.6
03/09/21 04:00 1020.2 19.1 68 4.6 19 23.9
03/09/21 04:10 1020.1 19 68 0 4.2 18 24
03/09/21 04:20 1020.1 19 68 4.7 17 24
03/09/21 04:30 1020 19 69 0 4 17 24.1
03/09/21 04:40 1019.8 19 68 4.9 18 24.2
03/09/21 04:50 1019.7 19.1 69 0 4.2 15 24.2
03/09/21 05:00 1019.7 18.9 69 4.4 20 24.3
03/09/21 05:10 1019.6 18.9 70 0 4.3 14 24.2
03/09/21 05:20 1019.6 19.1 70 0 4.8 8 24.2
03/09/21 05:30 1019.6 19 69 2 5.1 13 24.2
03/09/21 05:40 1019.5 19.2 68 7 5.8 20 24.1
03/09/21 05:50 1019.4 18.9 67 17 6 27 24.1
03/09/21 06:00 1019.4 19.1 68 34 5.5 30 24.1
03/09/21 06:10 1019.5 19.2 67 58 5.3 28 24.1
03/09/21 06:20 1019.5 19.4 67 87 6.2 25 24.1
03/09/21 06:30 1019.5 19.4 65 115 5.6 27 24.1
03/09/21 06:40 1019.5 19.5 66 145 4.7 31 24.1
03/09/21 06:50 1019.5 19.6 65 175 4.7 36 24.1
03/09/21 07:00 1019.5 19.8 64 210 5.3 31 24.1
03/09/21 07:10 1019.5 20.7 63 240 4.6 31 24.1
03/09/21 07:20 1019.5 21.1 61 272 4.4 33 24.1
03/09/21 07:30 1019.4 21.5 61 304 4.1 29 24.1
03/09/21 07:40 1019.3 21.9 60 333 3.3 37 24.1
03/09/21 07:50 1019.4 22.5 59 359 3.8 47 24.1
03/09/21 08:00 1019.4 22.4 56 392 4.6 43 24.1
03/09/21 08:10 1019.4 22.9 56 423 4 48 24.1
03/09/21 08:20 1019.4 23 55 454 4.6 43 24.1
03/09/21 08:30 1019.4 23.5 55 482 4.5 44 24.1
03/09/21 08:40 1019.4 23.9 51 511 4.3 53 24
03/09/21 08:50 1019.3 24.1 49 537 4.1 58 23.9
03/09/21 09:00 1019.3 23.6 45 565 4.7 68 23.8
03/09/21 09:10 1019.5 24.4 48 587 3.8 73 23.8
03/09/21 09:20 1019.4 25 47 612 4 75 23.8
03/09/21 09:30 1019.4 25.1 46 639 3.6 64 23.8
03/09/21 09:40 1019.4 25.8 43 665 3.6 49 23.7
03/09/21 09:50 1019.5 25.8 42 689 3.1 51 23.8
03/09/21 10:00 1019.5 25.5 41 666 2.9 63 23.7
03/09/21 10:10 1019.5 25.7 41 686 2.2 80 23.7
03/09/21 10:20 1019.3 25.9 41 758 2.2 65 23.8
03/09/21 10:30 1019.3 26.2 40 773 2.6 100 23.8
03/09/21 10:40 1019.3 26.1 39 770 3.1 138 23.8
03/09/21 10:50 1019.3 26.8 39 795 2.9 135 23.8
03/09/21 11:00 1019.4 26.7 39 783 3.5 133 23.8
03/09/21 11:10 1019.3 27 38 808 2.9 148 23.4
03/09/21 11:20 1019.2 26.8 39 845 2.3 146 23.3
03/09/21 11:30 1019.1 27.4 38 700 2.3 147 23.4
03/09/21 11:40 1018.9 26.6 39 629 2.6 138 23.6
03/09/21 11:50 1018.8 26.2 40 900 2.5 138 23.5
03/09/21 12:00 1018.7 25.7 40 890 3 150 24.3
03/09/21 12:10 1018.6 25.4 41 861 2.8 147 24.7
03/09/21 12:20 1018.6 25.5 42 838 2.9 152 24.1
03/09/21 12:30 1018.4 25.1 43 830 2.7 149 24.8
03/09/21 12:40 1018.3 25.3 42 814 2.4 150 24.4
03/09/21 12:50 1018.3 25.8 42 813 2.3 176 25
03/09/21 13:00 1018.2 25.7 40 752 2.3 173 23.5
03/09/21 13:10 1018.1 25.5 40 789 2.1 163 23.7
03/09/21 13:20 1018.2 25.6 39 748 2.3 177 24.2
03/09/21 13:30 1018.1 26.1 40 762 3.1 190 25.1
03/09/21 13:40 1018 25.6 39 741 2.7 185 24.9
03/09/21 13:50 1017.9 25.6 40 723 2.4 190 24.9
03/09/21 14:00 1017.7 26 43 707 2.6 190 24
03/09/21 14:10 1017.7 26.3 42 595 3.1 193 25.2
03/09/21 14:20 1017.6 25.4 44 647 3.1 186 25.1
03/09/21 14:30 1017.4 25.6 44 595 3 184 24
03/09/21 14:40 1017.3 25.8 43 705 3.3 186 23.7
03/09/21 14:50 1017.2 26 42 682 3.3 187 23.9
03/09/21 15:00 1017.1 25.9 40 645 3.1 178 25
03/09/21 15:10 1017 26.2 41 545 3.3 181 25.1
03/09/21 15:20 1016.9 24.8 40 127 3.3 183 23.6
03/09/21 15:30 1016.7 24.5 43 109 3.3 180 24.8
03/09/21 15:40 1016.6 24.3 44 128 3.3 180 24.5
03/09/21 15:50 1016.6 24.1 45 162 3.5 184 24.5
03/09/21 16:00 1016.5 24.1 46 178 3.3 182 24.4
03/09/21 16:10 1016.4 24.4 50 195 2.9 183 24.4
03/09/21 16:20 1016.3 24.3 45 190 3.2 184 24.4
03/09/21 16:30 1016.3 24.5 48 186 3.8 184 24.4
03/09/21 16:40 1016.1 24.6 44 176 3.4 174 24.4
03/09/21 16:50 1015.9 24.4 46 170 3.1 173 24.4
03/09/21 17:00 1015.8 24.8 48 246 3.2 172 24.3
03/09/21 17:10 1015.7 24.6 49 273 2.9 180 24.3
03/09/21 17:20 1015.6 24.8 48 227 3.2 179 24.3
03/09/21 17:30 1015.6 24.5 48 181 3.5 195 24.3
03/09/21 17:40 1015.5 24.4 49 137 3.6 188 24.3
03/09/21 17:50 1015.5 24.5 52 101 3.1 191 24.4
03/09/21 18:00 1015.3 24 56 58 2.9 186 24.4
03/09/21 18:10 1015.3 23.9 57 33 2.7 188 24.4
03/09/21 18:20 1015.3 23.8 59 20 2.6 195 24.4
03/09/21 18:30 1015.3 23.7 61 12 3 193 24.4
03/09/21 18:40 1015.4 23.4 61 4 2.3 201 24.3
03/09/21 18:50 1015.3 23.3 61 1 1.7 215 24.3
03/09/21 19:00 1015.4 23.2 61 1.8 215 25
03/09/21 19:10 1015.3 23.3 62 0 1.1 237 24.4
03/09/21 19:20 1015.4 23.2 62 0 1.5 216 24.1
03/09/21 19:30 1015.4 23.2 62 1.1 227 24.3
03/09/21 19:40 1015.4 23.1 62 0.9 216 24.3
03/09/21 19:50 1015.4 23.1 62 1.4 223 24.1
03/09/21 20:00 1015.4 23.1 62 1 211 24.1
03/09/21 20:10 1015.4 23 62 0 0.4 197 24.2
03/09/21 20:20 1015.4 22.8 61 0.4 177 24.1
03/09/21 20:30 1015.4 22.8 61 0.2 24.2
03/09/21 20:40 1015.4 22.8 63 1.1 108 24.2
03/09/21 20:50 1015.4 22.7 63 1.5 114 24.1
03/09/21 21:00 1015.4 22.7 65 1.4 106 24.2
03/09/21 21:10 1015.4 22.5 65 1.3 109 24.1
03/09/21 21:20 1015.3 22.5 63 1.2 95 24.1
03/09/21 21:30 1015.3 22.6 63 0 0.9 106 24.3
03/09/21 21:40 1015.4 22.5 64 0 0.5 128 24.1
03/09/21 21:50 1015.4 22.6 66 0.7 146 24.3
03/09/21 22:00 1015.6 22.5 68 1.2 146 24.1
03/09/21 22:10 1015.5 22.4 69 1 112 24.1
03/09/21 22:20 1015.6 22.4 70 0.8 122 24.2
03/09/21 22:30 1015.6 22.3 70 1.2 118 24.3
03/09/21 22:40 1015.7 22.3 71 0 0.8 122 24.1
03/09/21 22:50 1015.7 22.2 71 0 0.5 115 24.3
03/09/21 23:00 1015.7 22 70 0.1 24.1
03/09/21 23:10 1015.7 22 72 0.6 147 24.1
03/09/21 23:20 1015.7 22 71 0 0.5 162 24.1
03/09/21 23:30 1015.8 22.1 72 0 0 24.1
03/09/21 23:40 1015.8 21.6 74 1.9 290 24
03/09/21 23:50 1015.8 21.5 73 2 307 24
04/09/21 00:00 1015.9 21.4 73 1.9 316 24
04/09/21 00:10 1015.9 21.4 72 1.9 309 24
04/09/21 00:20 1015.9 21.3 71 1.7 288 24
04/09/21 00:30 1015.8 21.3 71 1.4 284 24.1
04/09/21 00:40 1015.6 21.2 70 1.4 312 24
04/09/21 00:50 1015.5 21.2 70 1.5 323 24.1
04/09/21 01:00 1015.3 21.1 71 0 1.4 338 24.1
04/09/21 01:10 1015.3 21 71 1 324 23.9
04/09/21 01:20 1015.3 21 69 1.2 317 23.9
04/09/21 01:30 1015.3 21.1 69 1.3 300 23.9
04/09/21 01:40 1015.2 21 70 1.5 318 23.8
04/09/21 01:50 1015.2 20.8 69 0 1.8 357 23.9
04/09/21 02:00 1015.1 20.5 68 0 1.8 339 23.8
04/09/21 02:10 1015.1 20.4 68 0 2 344 23.7
04/09/21 02:20 1015 20.1 70 0 2.8 354 23.7
04/09/21 02:30 1015 19.8 71 0 2.9 8 23.7
04/09/21 02:40 1015 19.6 72 0 2.8 7 23.8
04/09/21 02:50 1014.9 19.5 74 0 2.5 360 23.7
04/09/21 03:00 1014.9 19.4 75 0 2.4 0 23.8
04/09/21 03:10 1014.8 19.2 75 0 2.6 2 23.8
04/09/21 03:20 1014.7 19.1 77 0 2.6 359 24.4
04/09/21 03:30 1014.6 18.8 78 0 2.8 1 23.7
04/09/21 03:40 1014.6 18.9 78 3.8 15 23.7
04/09/21 03:50 1014.4 18.7 78 0 3.4 17 23.7
04/09/21 04:00 1014.3 18.6 78 0 4.1 18 23.8
04/09/21 04:10 1014.2 18.4 79 3.5 17 24
04/09/21 04:20 1014.2 18.4 80 0 3.9 23 23.9
04/09/21 04:30 1014.2 18.3 81 3.3 17 24.1
04/09/21 04:40 1014.2 18.5 81 3.2 15 24
04/09/21 04:50 1014.1 18.4 82 2.8 8 24.2
04/09/21 05:00 1014.1 18.3 82 2.9 16 24
04/09/21 05:10 1014.2 18.3 81 0 1.9 6 24.2
04/09/21 05:20 1014.3 18.3 81 0 2.1 356 24.1
04/09/21 05:30 1014.2 18.2 80 1 2.6 8 24.1
04/09/21 05:40 1014.1 18.2 80 6 3.8 17 24.1
04/09/21 05:50 1014.2 18.3 80 15 3.9 20 24.1
04/09/21 06:00 1014.2 18.1 80 33 4 22 24.1
04/09/21 06:10 1014.3 18.3 81 56 2.9 22 24.2
04/09/21 06:20 1014.2 18.5 81 82 2.9 18 24.1
04/09/21 06:30 1014.3 18.5 81 110 3.4 25 24
04/09/21 06:40 1014.4 18.4 80 141 3.4 24 24.1
04/09/21 06:50 1014.5 18.4 80 175 3.1 21 24.1
04/09/21 07:00 1014.4 18.5 80 209 3.3 20 24
04/09/21 07:10 1014.4 19.4 80 242 3.6 24 24.2
04/09/21 07:20 1014.5 20.1 78 271 3.9 32 24.2
04/09/21 07:30 1014.5 20.1 75 288 4.3 30 24
04/09/21 07:40 1014.4 20.4 73 316 4.1 29 24
04/09/21 07:50 1014.5 20.9 71 372 4 28 23.9
04/09/21 08:00 1014.6 21.7 69 403 3.7 30 24
04/09/21 08:10 1014.7 21.8 67 407 3.3 22 24
04/09/21 08:20 1014.7 22 66 417 3.8 30 23.8
04/09/21 08:30 1014.8 22.4 65 474 4 28 23.5
04/09/21 08:40 1014.9 22.8 63 480 3.6 25 24
04/09/21 08:50 1015 23.1 62 513 3.4 31 24
04/09/21 09:00 1015 23.8 59 511 3.3 26 24
04/09/21 09:10 1015.1 24.2 59 519 3.7 21 23.9
04/09/21 09:20 1015.1 24.4 58 526 3.1 18 23.9
04/09/21 09:30 1015.2 24.7 56 651 3.3 18 23.9
04/09/21 09:40 1015.3 24.4 55 518 3.4 29 23.9
04/09/21 09:50 1015.3 24.6 55 488 3.1 24 23.9
04/09/21 10:00 1015.4 24.9 54 492 2.4 26 23.9
04/09/21 10:10 1015.4 25.1 52 592 2.4 34 23.9
04/09/21 10:20 1015.4 26.2 51 642 2 29 23.8
04/09/21 10:30 1015.5 26.4 48 709 1.7 40 23.8
04/09/21 10:40 1015.5 26 48 579 1.6 35 23.9
04/09/21 10:50 1015.5 26.5 47 622 1.8 101 23.9
04/09/21 11:00 1015.4 26.5 46 657 1.1 51 23.9
04/09/21 11:10 1015.3 26.8 46 513 1.4 96 24
04/09/21 11:20 1015.3 26.8 44 521 1.2 77 24
04/09/21 11:30 1015.2 27.3 43 764 1.1 117 24
04/09/21 11:40 1015.2 26.7 40 601 2.2 157 24
04/09/21 11:50 1015 26.8 42 450 2.2 172 24.1
04/09/21 12:00 1014.9 26.4 45 348 1.7 172 24.1
04/09/21 12:10 1014.8 25.6 48 369 1.8 163 24.1
04/09/21 12:20 1014.7 25.3 49 392 1.9 173 24.1
04/09/21 12:30 1014.7 24.6 51 416 2.1 165 24.2
04/09/21 12:40 1014.7 24.7 53 440 2.3 172 24.2
04/09/21 12:50 1014.7 24.8 53 475 2.1 167 24.2
04/09/21 13:00 1014.6 24.7 53 405 2.4 168 24.2
04/09/21 13:10 1014.6 25.4 53 446 2.5 162 24.2
04/09/21 13:20 1014.6 25.1 53 568 2.3 164 24.2
04/09/21 13:30 1014.5 25 52 410 2.4 168 24.3
04/09/21 13:40 1014.4 25.3 51 489 2.6 174 24.3
04/09/21 13:50 1014.3 25.8 52 562 2.4 182 24.3
04/09/21 14:00 1014.2 25.5 50 554 2.3 188 24.3
04/09/21 14:10 1014.1 25.8 51 543 2.7 187 24.3
04/09/21 14:20 1014 26 49 538 2.7 186 24.3
04/09/21 14:30 1013.9 25.8 48 482 2.7 187 24.3
04/09/21 14:40 1013.8 26 49 487 2.5 183 24.3
04/09/21 14:50 1013.7 25.8 47 389 2.4 182 24.3
04/09/21 15:00 1013.6 25.7 49 402 2.2 184 24.3
04/09/21 15:10 1013.6 25.9 48 389 2.3 187 24.3
04/09/21 15:20 1013.6 26.3 47 432 2.3 192 24.3
04/09/21 15:30 1013.5 25.5 48 279 2.7 190 24.3
04/09/21 15:40 1013.4 25.5 51 293 3 188 24.3
04/09/21 15:50 1013.4 25.5 51 252 2.6 199 24.3
04/09/21 16:00 1013.4 25.4 49 287 3 197 24.3
04/09/21 16:10 1013.4 25.4 50 259 2.9 198 24.3
04/09/21 16:20 1013.3 25.6 49 367 2.5 201 24.3
04/09/21 16:30 1013.3 25.6 48 245 2.5 198 24.3
04/09/21 16:40 1013.3 25.7 49 239 2.4 194 24.3
04/09/21 16:50 1013.3 25.5 52 160 2.1 198 24.3
04/09/21 17:00 1013.2 25.2 52 119 1.3 221 24.3
04/09/21 17:10 1013.3 24.9 53 98 1.6 223 24.3
04/09/21 17:20 1013.3 24.9 52 93 1.3 216 24.3
04/09/21 17:30 1013.3 24.9 52 130 1.5 223 24.3
04/09/21 17:40 1013.2 24.8 52 105 1.8 222 24.4
04/09/21 17:50 1013.1 24.9 51 62 1.5 240 24.4
04/09/21 18:00 1013.1 24.7 51 42 1.6 249 24.4
04/09/21 18:10 1013.1 24.6 51 29 1.5 257 24.4
04/09/21 18:20 1013.1 24.7 53 20 1.3 249 24.4
04/09/21 18:30 1013.1 24.5 54 13 1.4 258 24.3
04/09/21 18:40 1013.2 24.4 55 4 1.5 260 24.3
04/09/21 18:50 1013.3 24.3 56 1 1.2 254 24.3
04/09/21 19:00 1013.4 24.1 58 1.4 254 24.3
04/09/21 19:10 1013.5 24.1 58 1.1 264 24.2
04/09/21 19:20 1013.5 23.9 59 1 263 24.2
04/09/21 19:30 1013.7 23.8 59 0.7 249 24.2
04/09/21 19:40 1013.9 23.8 60 1.4 240 24.2
04/09/21 19:50 1014 23.6 60 1.5 246 24.2
04/09/21 20:00 1014.1 23.5 60 1.2 256 24.2
04/09/21 20:10 1014.2 23.6 60 1.3 249 24.2
04/09/21 20:20 1014.3 23.4 61 1.4 252 24.2
04/09/21 20:30 1014.3 23.4 62 1.4 251 24.2
04/09/21 20:40 1014.3 23.4 63 1.3 233 24.2
04/09/21 20:50 1014.3 23.3 62 0 0.9 207 24.2
04/09/21 21:00 1014.4 23.3 63 0.7 188 24.2
04/09/21 21:10 1014.5 23 63 1 217 24.2
04/09/21 21:20 1014.5 22.9 65 0.8 248 24.2
04/09/21 21:30 1014.6 22.5 66 0.8 273 24.2
04/09/21 21:40 1014.6 22.4 68 0 0.4 295 24.1
04/09/21 21:50 1014.6 22.4 69 0 24.1
04/09/21 22:00 1014.7 22.1 68 0 0.1 24.1
04/09/21 22:10 1014.8 22 69 0 0 24.1
04/09/21 22:20 1014.9 22.1 69 0 0 24.1
04/09/21 22:30 1015 22 70 0.4 336 24.1
04/09/21 22:40 1015 22.1 69 0.7 351 24.1
04/09/21 22:50 1015 21.9 70 1 351 24.1
04/09/21 23:00 1015 22.1 74 1.2 360 24.1
04/09/21 23:10 1015.1 22.2 76 1.7 11 24.1
04/09/21 23:20 1015 22.1 72 1.9 15 24.1
04/09/21 23:30 1014.9 21.9 70 0 2.6 17 24.1
04/09/21 23:40 1014.9 22 67 2.8 15 24.1
04/09/21 23:50 1015 21.9 68 2.4 4 24.1
05/09/21 00:00 1015.1 21.9 70 2.9 8 24.1
05/09/21 00:10 1015 21.8 70 3.2 9 24.1
05/09/21 00:20 1015 21.8 71 3.2 12 24.1
05/09/21 00:30 1015 21.9 69 3.2 10 24.1
05/09/21 00:40 1015 21.7 69 0 3.7 14 24.1
05/09/21 00:50 1015 21.5 69 0 3 7 24.1
05/09/21 01:00 1014.9 21.4 70 0 2.6 1 24.1
05/09/21 01:10 1014.9 21.3 71 0 3.1 13 24.1
05/09/21 01:20 1015 21.1 72 0 3.7 23 24
05/09/21 01:30 1015 20.9 73 0 3.3 16 24
05/09/21 01:40 1015 20.8 74 0 3 10 24
05/09/21 01:50 1015 20.5 73 0 3.1 3 24
05/09/21 02:00 1015 20.4 74 0 2.7 354 24
05/09/21 02:10 1015 20.3 75 2.6 352 23.9
05/09/21 02:20 1015.1 20.1 76 0 3.6 10 23.9
05/09/21 02:30 1015.2 20 76 0 4.4 22 23.9
05/09/21 02:40 1015.2 19.8 77 0 4 15 23.9
05/09/21 02:50 1015.2 19.8 79 0 3.7 9 23.9
05/09/21 03:00 1015.3 19.8 80 0 3.9 8 23.9
05/09/21 03:10 1015.3 19.8 81 3.7 1 23.9
05/09/21 03:20 1015.3 19.6 80 0 3.4 7 23.8
05/09/21 03:30 1015.3 19.6 81 3.1 14 23.8
05/09/21 03:40 1015.2 19.6 81 2.9 13 23.8
05/09/21 03:50 1015.3 19.6 82 3.4 13 23.8
05/09/21 04:00 1015.4 19.4 82 0 4 7 23.8
05/09/21 04:10 1015.4 19 81 0 5.1 10 23.8
05/09/21 04:20 1015.4 18.9 81 0 5.5 15 23.8
05/09/21 04:30 1015.5 18.9 80 4.9 13 23.8
05/09/21 04:40 1015.5 19 79 5 23 23.7
05/09/21 04:50 1015.4 19.1 79 4.8 25 23.7
05/09/21 05:00 1015.5 19.1 78 0 5.1 22 23.7
05/09/21 05:10 1015.5 19 78 0 4.6 21 23.9
05/09/21 05:20 1015.5 19.1 78 0 4.6 20 23.9
05/09/21 05:30 1015.7 19.2 78 1 4.3 19 24
05/09/21 05:40 1015.8 19.1 77 6 4.1 12 23.9
05/09/21 05:50 1015.8 19 74 17 4.1 10 24
05/09/21 06:00 1015.8 19.1 74 40 4.8 21 24.1
05/09/21 06:10 1015.9 19.3 74 71 5.1 21 24.1
05/09/21 06:20 1016 19.4 73 97 4.9 21 24.1
05/09/21 06:30 1016.1 19.6 73 126 4.4 12 24.1
05/09/21 06:40 1016.2 19.7 73 143 4.3 4 24.1
05/09/21 06:50 1016.3 19.8 73 170 4.4 5 24.1
05/09/21 07:00 1016.4 19.9 73 197 4.9 12 24
05/09/21 07:10 1016.3 20.5 72 225 4.9 16 23.9
05/09/21 07:20 1016.3 21 71 255 4.7 17 23.9
05/09/21 07:30 1016.4 21.3 69 287 5.4 21 23.9
05/09/21 07:40 1016.4 21.5 67 317 5 21 23.8
05/09/21 07:50 1016.5 21.9 66 347 4.8 26 23.9
05/09/21 08:00 1016.6 22.3 64 380 4.8 25 23.9
05/09/21 08:10 1016.7 22.7 62 411 4.8 26 23.9
05/09/21 08:20 1016.8 23.2 61 442 5.3 25 23.9
05/09/21 08:30 1016.8 24 59 469 4.6 25 23.9
05/09/21 08:40 1016.9 24.4 55 496 4.5 27 23.9
05/09/21 08:50 1017 24.5 55 539 5 31 23.9
05/09/21 09:00 1017 25.1 51 564 5.2 43 23.8
05/09/21 09:10 1017.1 25.9 50 602 4.7 41 23.8
05/09/21 09:20 1017.2 25.4 47 615 4.7 53 23.8
05/09/21 09:30 1017.2 26 46 337 5.9 48 23.9
05/09/21 09:40 1017.2 25.7 45 388 6.5 48 23.9
05/09/21 09:50 1017.3 25.8 43 719 6 50 23.8
05/09/21 10:00 1017.4 26.3 44 486 6.4 71 23.8
05/09/21 10:10 1017.4 26.5 42 722 5.2 59 23.8
05/09/21 10:20 1017.4 27.1 42 742 5.1 53 23.8
05/09/21 10:30 1017.4 27.4 41 645 5 68 23.8
05/09/21 10:40 1017.5 27.4 40 757 5 59 23.8
05/09/21 10:50 1017.5 27.4 39 771 5.3 67 23.8
05/09/21 11:00 1017.5 28.2 37 780 4.6 84 23.8
05/09/21 11:10 1017.3 28.4 36 778 5.7 92 23.8
05/09/21 11:20 1017.3 28.2 36 789 5.6 94 23.8
05/09/21 11:30 1017.3 28 36 790 5 104 23.8
05/09/21 11:40 1017.3 27.5 36 794 5.6 96 23.8
05/09/21 11:50 1017.3 27.6 37 798 5.8 108 23.8
05/09/21 12:00 1017.4 28.2 37 799 5.9 106 23.9
05/09/21 12:10 1017.4 27.9 37 799 5.7 110 23.9
05/09/21 12:20 1017.4 28.4 38 798 6.5 113 24
05/09/21 12:30 1017.4 28.6 36 795 5.6 119 24
05/09/21 12:40 1017.3 28 35 788 5.5 112 24
05/09/21 12:50 1017.3 28.6 37 782 5.2 108 24.1
05/09/21 13:00 1017.4 27.8 35 777 6.5 125 24.1
05/09/21 13:10 1017.4 28.1 36 765 4.3 120 24.1
05/09/21 13:20 1017.4 27.3 39 749 4.9 121 24.1
05/09/21 13:30 1017.3 27.4 36 738 4 130 24.1
05/09/21 13:40 1017.3 28.2 37 717 3.9 130 24.2
05/09/21 13:50 1017.2 27.9 37 701 3.6 127 24.2
05/09/21 14:00 1017.1 27.8 37 683 3.9 126 24.2
05/09/21 14:10 1017 27.7 36 661 4.2 131 24.2
05/09/21 14:20 1017 27.4 37 645 4.2 128 24.3
05/09/21 14:30 1017 27.5 38 621 3.4 134 24.3
05/09/21 14:40 1017 27 38 595 2.6 139 24.3
05/09/21 14:50 1017 26.8 39 575 3.1 141 24.3
05/09/21 15:00 1017 27.4 38 547 2.6 143 24.3
05/09/21 15:10 1017 27.5 37 521 2.4 141 24.3
05/09/21 15:20 1016.9 27.4 36 493 2.3 135 24.3
05/09/21 15:30 1016.9 27.6 37 468 1.9 151 24.3
05/09/21 15:40 1016.8 27.2 37 437 1.5 151 24.3
05/09/21 15:50 1016.7 26.7 37 409 1.4 155 24.3
05/09/21 16:00 1016.7 27.1 36 380 2 177 24.3
05/09/21 16:10 1016.6 27 36 347 1.2 185 24.3
05/09/21 16:20 1016.6 26.9 36 316 1.5 201 24.3
05/09/21 16:30 1016.5 26.7 36 289 1.8 196 24.3
05/09/21 16:40 1016.5 26.9 36 259 1.9 191 24.3
05/09/21 16:50 1016.5 26.5 38 227 1.8 196 24.2
05/09/21 17:00 1016.5 26.3 41 195 1.5 202 24.2
05/09/21 17:10 1016.5 25.9 38 163 1.2 200 24.3
05/09/21 17:20 1016.5 26 41 134 1.3 241 24.3
05/09/21 17:30 1016.6 25.9 43 106 1.3 234 24.3
05/09/21 17:40 1016.6 25.8 42 80 1.9 248 24.3
05/09/21 17:50 1016.7 25.5 44 54 1.3 255 24.3
05/09/21 18:00 1016.7 25.6 43 35 1.2 251 24.3
05/09/21 18:10 1016.7 25.5 47 21 1.8 247 24.4
05/09/21 18:20 1016.8 25.1 50 12 1.8 268 24.4
05/09/21 18:30 1016.8 24.9 50 7 1.4 251 24.4
05/09/21 18:40 1016.9 24.9 44 2 1.7 265 24.4
05/09/21 18:50 1017.1 24.7 52 0 1.4 267 24.4
05/09/21 19:00 1017.2 24.7 50 1.9 276 24.3
05/09/21 19:10 1017.3 24.5 52 1.7 274 24.2
05/09/21 19:20 1017.3 24.4 51 1.5 283 24.2
05/09/21 19:30 1017.5 24.3 52 1.2 310 24.2
05/09/21 19:40 1017.5 24.4 52 0 1.3 339 24.2
05/09/21 19:50 1017.7 24.4 52 1.5 1 24.2
05/09/21 20:00 1017.9 24.5 53 2.3 351 24.2
05/09/21 20:10 1018 24.3 53 2.8 353 24.2
05/09/21 20:20 1018.1 24.5 53 3.2 4 24.2
05/09/21 20:30 1018.2 24.5 52 3.4 4 24.2
05/09/21 20:40 1018.3 24.6 50 4.3 17 24.2
05/09/21 20:50 1018.4 24.6 49 4.5 21 24.2
05/09/21 21:00 1018.4 24.5 49 4.8 32 24.2
05/09/21 21:10 1018.4 24.4 49 0 4.2 31 24.2
05/09/21 21:20 1018.5 24.3 52 0 4 39 24.2
05/09/21 21:30 1018.6 24.2 55 4.8 46 24.1
05/09/21 21:40 1018.8 24 58 0 4.2 49 24.1
05/09/21 21:50 1018.9 24 58 0 4.7 52 24.1
05/09/21 22:00 1018.8 23.9 58 5.1 59 24.1
05/09/21 22:10 1018.9 23.9 56 4.5 80 24.1
05/09/21 22:20 1019.1 23.9 55 4.2 78 24
05/09/21 22:30 1019.2 23.8 58 0 4.3 68 24
05/09/21 22:40 1019.3 23.6 62 0 3.8 55 24
05/09/21 22:50 1019.3 23.3 66 0 3.2 48 24.1
05/09/21 23:00 1019.3 23.2 68 0 3.1 45 24.1
05/09/21 23:10 1019.4 22.9 68 3 51 24.1
05/09/21 23:20 1019.4 22.9 66 3.2 46 24
05/09/21 23:30 1019.5 22.9 64 3.5 49 24
05/09/21 23:40 1019.5 22.5 65 3.2 36 24
05/09/21 23:50 1019.4 22.3 63 0 3.5 19 24.1
06/09/21 00:00 1019.3 22.1 64 0 3.3 33 24.1
06/09/21 00:10 1019.3 21.9 64 0 3.3 28 24.1
06/09/21 00:20 1019.4 22.1 65 3.3 31 24
06/09/21 00:30 1019.5 21.9 60 0 4 10 24
06/09/21 00:40 1019.6 21.8 58 0 4.6 356 24
06/09/21 00:50 1019.6 21.6 57 0 4.8 3 24
06/09/21 01:00 1019.5 21.7 58 4.5 12 24
06/09/21 01:10 1019.5 21.6 58 4.5 16 24
06/09/21 01:20 1019.6 21.6 59 4.6 21 24
06/09/21 01:30 1019.6 21.4 60 0 5.5 24 24
06/09/21 01:40 1019.5 21.5 59 4.9 25 24
06/09/21 01:50 1019.5 21.4 60 0 4.4 18 24
06/09/21 02:00 1019.5 21.4 61 0 4.1 14 23.9
06/09/21 02:10 1019.5 21.1 61 0 3.7 9 23.9
06/09/21 02:20 1019.6 21.1 61 0 3.6 9 23.9
06/09/21 02:30 1019.6 21.1 61 0 3.5 15 23.9
06/09/21 02:40 1019.6 20.9 61 0 5 17 23.9
06/09/21 02:50 1019.6 20.7 62 0 4.7 17 23.9
06/09/21 03:00 1019.6 20.6 62 0 4.6 20 23.9
06/09/21 03:10 1019.6 20.5 63 0 4.4 23 23.8
06/09/21 03:20 1019.6 20.5 64 0 4.8 23 23.8
06/09/21 03:30 1019.6 20.3 65 4.3 19 23.8
06/09/21 03:40 1019.6 20.4 65 5.1 22 23.8
06/09/21 03:50 1019.6 20.5 65 4.7 22 23.8
06/09/21 04:00 1019.5 20.5 66 0 5.6 26 23.8
06/09/21 04:10 1019.5 20.4 66 0 6.2 24 23.8
06/09/21 04:20 1019.5 20.4 66 0 5.7 24 23.7
06/09/21 04:30 1019.6 20.2 66 5.5 24 23.7
06/09/21 04:40 1019.6 20 66 0 4.9 24 23.7
06/09/21 04:50 1019.6 19.9 67 0 4.7 27 23.7
06/09/21 05:00 1019.7 19.7 66 4.9 15 23.6
06/09/21 05:10 1019.7 19.5 67 3.9 15 23.6
06/09/21 05:20 1019.7 19.4 68 0 4.2 16 23.7
06/09/21 05:30 1019.8 19.3 68 1 5 14 23.8
06/09/21 05:40 1019.9 19.7 69 5 5.2 18 23.8
06/09/21 05:50 1020 19.8 68 15 4.3 24 23.9
06/09/21 06:00 1020 19.4 67 31 4.7 21 23.9
06/09/21 06:10 1020.1 19.6 67 53 4.9 20 23.8
06/09/21 06:20 1020.1 19.6 67 79 4.5 18 23.9
06/09/21 06:30 1020.2 19.5 68 106 5.3 22 23.9
06/09/21 06:40 1020.3 19.1 68 137 4.4 25 23.9
06/09/21 06:50 1020.3 19.4 68 168 5.3 25 23.9
06/09/21 07:00 1020.3 20 68 200 5.9 19 23.9
06/09/21 07:10 1020.4 20.1 67 231 4.6 17 23.8
06/09/21 07:20 1020.5 20.5 65 263 5.2 17 23.7
06/09/21 07:30 1020.5 20.9 64 295 5.4 22 23.7
06/09/21 07:40 1020.6 21.3 63 324 5 22 23.7
06/09/21 07:50 1020.7 21.7 62 354 4.9 21 23.7
06/09/21 08:00 1020.6 22.3 60 384 5.5 21 23.7
06/09/21 08:10 1020.7 22.5 57 411 4.8 22 23.7
06/09/21 08:20 1020.7 23 55 440 4.9 25 23.7
06/09/21 08:30 1020.8 23.2 52 469 6.2 29 23.7
06/09/21 08:40 1020.9 24.2 50 496 5.3 38 23.7
06/09/21 08:50 1020.9 24.2 48 524 5.6 45 23.7
06/09/21 09:00 1021 24.6 47 551 5.4 42 23.6
06/09/21 09:10 1021.1 24.7 46 579 6 42 23.7
06/09/21 09:20 1021.1 25 46 605 6.2 44 23.7
06/09/21 09:30 1021.2 25 45 628 5.7 51 23.7
06/09/21 09:40 1021.3 25.3 44 650 6 49 23.6
06/09/21 09:50 1021.3 25.8 43 673 6.1 44 23.7
06/09/21 10:00 1021.3 26.6 43 695 5.8 48 23.6
06/09/21 10:10 1021.4 26.7 42 712 5.7 40 23.6
06/09/21 10:20 1021.4 26.7 41 725 4.8 47 23.6
06/09/21 10:30 1021.4 26.9 40 740 5.5 41 23.5
06/09/21 10:40 1021.3 27.3 40 754 4.8 38 23.6
06/09/21 10:50 1021.3 27.8 39 766 4.9 39 23.6
06/09/21 11:00 1021.3 27.6 37 775 5.2 35 23.6
06/09/21 11:10 1021.3 27.5 37 783 5.4 35 23.6
06/09/21 11:20 1021.2 27.7 37 790 5.5 33 23.6
06/09/21 11:30 1021.1 28 37 796 4.8 32 23.6
06/09/21 11:40 1021.1 28.4 37 797 4.9 36 23.6
06/09/21 11:50 1021.1 28.8 36 802 4 75